EW8328 Weather Reports


time (UTC)temp
C
wind
direction
speed
KPH
gust
KPH
rain 1hr
cm
rain 24hr
cm
rain mn
cm
humidity
%
barometer
mb
20260506135357 11 80 6.4 12.9 0.00 0.00 0.00 53 1014.7
20260506134856 10 137 3.2 8.0 0.00 0.00 0.00 51 1014.7
20260506134356 10 78 3.2 9.7 0.00 0.00 0.00 52 1014.7
20260506133356 10 84 3.2 14.5 0.00 0.00 0.00 55 1014.8
20260506132856 10 93 4.8 11.3 0.00 0.00 0.00 56 1014.8
20260506132356 10 82 3.2 8.0 0.00 0.00 0.00 56 1014.8
20260506131856 10 95 4.8 12.9 0.00 0.00 0.00 56 1014.8
20260506130357 11 74 3.2 12.9 0.00 0.00 0.00 55 1014.9
20260506125856 11 110 8.0 14.5 0.00 0.00 0.00 52 1014.8
20260506124856 11 273 1.6 9.7 0.00 0.00 0.00 52 1014.7
20260506124356 11 115 4.8 9.7 0.00 0.00 0.00 50 1014.8
20260506123856 11 89 4.8 9.7 0.00 0.00 0.00 50 1014.8
20260506123356 11 47 3.2 8.0 0.00 0.00 0.00 52 1014.8
20260506122856 11 104 3.2 9.7 0.00 0.00 0.00 50 1014.8
20260506122356 11 351 3.2 4.8 0.00 0.00 0.00 49 1014.7
20260506121856 11 26 4.8 8.0 0.00 0.00 0.00 50 1014.9
20260506121356 11 358 1.6 8.0 0.00 0.00 0.00 54 1014.9
20260506120356 11 84 4.8 9.7 0.00 0.00 0.00 53 1015.0
20260506115855 10 310 4.8 11.3 0.00 0.00 0.00 53 1015.0
20260506115356 10 16 3.2 8.0 0.00 0.00 0.00 51 1015.0
20260506114856 11 39 4.8 11.3 0.00 0.00 0.00 54 1015.0
20260506113856 11 9 3.2 11.3 0.00 0.00 0.00 53 1015.1
20260506113356 11 94 4.8 11.3 0.00 0.00 0.00 54 1015.1
20260506112355 10 87 3.2 8.0 0.00 0.00 0.00 54 1015.2
20260506111856 10 351 1.6 12.9 0.00 0.00 0.00 56 1015.2
20260506111356 10 13 8.0 14.5 0.00 0.00 0.00 59 1015.2
20260506110856 10 4 4.8 14.5 0.00 0.00 0.00 58 1015.2
20260506110356 10 350 1.6 8.0 0.00 0.00 0.00 60 1015.2
20260506105856 10 30 1.6 8.0 0.00 0.00 0.00 59 1015.2
20260506105355 10 65 3.2 8.0 0.00 0.00 0.00 60 1015.2
20260506104856 10 350 3.2 9.7 0.00 0.00 0.00 58 1015.2
20260506104356 10 345 3.2 19.3 0.00 0.00 0.00 59 1015.3
20260506103856 11 92 4.8 11.3 0.00 0.00 0.00 57 1015.4
20260506103357 10 74 4.8 14.5 0.00 0.00 0.00 61 1015.3
20260506102856 10 80 8.0 14.5 0.00 0.00 0.00 62 1015.3
20260506102357 10 5 4.8 16.1 0.00 0.00 0.00 62 1015.3
20260506101856 10 356 4.8 12.9 0.00 0.00 0.00 60 1015.3
20260506101356 10 25 3.2 11.3 0.00 0.00 0.00 63 1015.3
20260506100855 10 93 6.4 11.3 0.00 0.00 0.00 63 1015.3
20260506095856 10 100 3.2 12.9 0.00 0.00 0.00 64 1015.3
20260506095355 9 79 4.8 11.3 0.00 0.00 0.00 64 1015.3
20260506094857 10 20 4.8 11.3 0.00 0.00 0.00 64 1015.4
20260506093855 9 113 6.4 16.1 0.00 0.00 0.00 63 1015.4
20260506093355 9 41 3.2 8.0 0.00 0.00 0.00 66 1015.4
20260506092856 8 229 1.6 4.8 0.00 0.00 0.00 67 1015.4
20260506091357 8 103 4.8 14.5 0.00 0.00 0.00 66 1015.5
20260506090856 8 81 3.2 11.3 0.00 0.00 0.00 71 1015.5
20260506090356 7 78 3.2 12.9 0.00 0.00 0.00 71 1015.5
20260506085857 7 17 6.4 16.1 0.00 0.00 0.00 72 1015.5
20260506085356 7 12 4.8 12.9 0.00 0.00 0.00 71 1015.5
20260506084856 7 27 4.8 12.9 0.00 0.00 0.00 72 1015.5
20260506084356 7 12 3.2 12.9 0.00 0.00 0.00 73 1015.5
20260506083355 7 46 3.2 11.3 0.00 0.00 0.00 71 1015.5
20260506082856 7 40 3.2 12.9 0.00 0.00 0.00 73 1015.5
20260506082356 7 58 4.8 12.9 0.00 0.00 0.00 73 1015.6
20260506081856 6 23 4.8 11.3 0.00 0.00 0.00 74 1015.6
20260506081356 6 2 3.2 11.3 0.00 0.00 0.00 74 1015.6
20260506080857 6 39 4.8 16.1 0.00 0.00 0.00 74 1015.6
20260506080356 6 30 4.8 16.1 0.00 0.00 0.00 75 1015.5
20260506073355 6 20 3.2 12.9 0.00 0.00 0.00 75 1015.4
20260506072355 6 94 3.2 12.9 0.00 0.00 0.00 76 1015.4
20260506071856 6 102 3.2 9.7 0.00 0.00 0.00 76 1015.4
20260506071356 6 65 4.8 12.9 0.00 0.00 0.00 76 1015.4
20260506070856 6 14 4.8 11.3 0.00 0.00 0.00 77 1015.4
20260506070356 5 64 1.6 8.0 0.00 0.00 0.00 78 1015.4
20260506062356 3 173 0.0 1.6 0.00 0.00 0.00 81 1015.2
20260506061856 3 173 0.0 3.2 0.00 0.00 0.00 81 1015.1
20260506061356 3 173 1.6 4.8 0.00 0.00 0.00 82 1015.1
20260506060856 3 138 1.6 3.2 0.00 0.00 0.00 82 1015.1
20260506060355 3 161 1.6 4.8 0.00 0.00 0.00 82 1015.0
20260506051355 2 34 1.6 4.8 0.00 0.00 0.00 84 1015.1
20260506050355 2 14 1.6 4.8 0.00 0.00 0.00 85 1015.1
20260506044356 2 336 0.0 3.2 0.00 0.00 0.00 83 1015.1
20260506043855 2 336 0.0 3.2 0.00 0.00 0.00 83 1015.1
20260506043356 2 289 1.6 3.2 0.00 0.00 0.00 83 1015.1
20260506042355 2 263 0.0 3.2 0.00 0.00 0.00 84 1015.1
20260506041856 2 265 0.0 3.2 0.00 0.00 0.00 84 1015.0
20260506040855 2 265 0.0 1.6 0.00 0.00 0.00 84 1015.1
20260506040355 1 265 0.0 3.2 0.00 0.00 0.00 84 1015.1
20260506035856 1 265 0.0 3.2 0.00 0.00 0.00 84 1015.1
20260506035355 1 265 0.0 3.2 0.00 0.00 0.00 84 1015.1
20260506034856 2 265 0.0 1.6 0.00 0.00 0.00 84 1015.1
20260506034355 2 265 0.0 3.2 0.00 0.00 0.00 84 1015.0
20260506033855 2 265 0.0 3.2 0.00 0.00 0.00 85 1015.1
20260506033355 2 270 1.6 4.8 0.00 0.00 0.00 84 1015.1
20260506032856 2 328 0.0 1.6 0.00 0.00 0.00 84 1015.2
20260506031856 2 328 0.0 1.6 0.00 0.00 0.00 84 1015.3
20260506031355 2 328 0.0 3.2 0.00 0.00 0.00 84 1015.3
20260506030856 2 328 0.0 3.2 0.00 0.00 0.00 84 1015.3
20260506030355 2 328 0.0 3.2 0.00 0.00 0.00 85 1015.3
20260506025857 2 328 0.0 3.2 0.00 0.00 0.00 85 1015.3
20260506025356 2 328 0.0 1.6 0.00 0.00 0.00 85 1015.3
20260506024356 2 328 0.0 3.2 0.00 0.00 0.00 85 1015.3
20260506023855 2 328 0.0 0.0 0.00 0.00 0.00 85 1015.3
20260506022856 2 328 0.0 3.2 0.00 0.00 0.00 85 1015.3
20260506022355 2 328 0.0 3.2 0.00 0.00 0.00 85 1015.3
20260506021856 3 328 0.0 4.8 0.00 0.00 0.00 85 1015.3
20260506021355 3 328 0.0 3.2 0.00 0.00 0.00 85 1015.3
20260506020855 3 328 0.0 3.2 0.00 0.00 0.00 86 1015.3
20260506020356 3 328 1.6 3.2 0.00 0.00 0.00 84 1015.2
20260506015855 3 328 1.6 3.2 0.00 0.00 0.00 85 1015.3
20260506015355 3 328 0.0 3.2 0.00 0.00 0.00 85 1015.3
20260506014855 3 2 1.6 4.8 0.00 0.00 0.00 85 1015.4
20260506014355 3 81 1.6 3.2 0.00 0.00 0.00 85 1015.4
20260506013855 3 81 1.6 3.2 0.00 0.00 0.00 85 1015.4
20260506013355 3 81 1.6 4.8 0.00 0.00 0.00 84 1015.4
20260506012856 4 81 0.0 3.2 0.00 0.00 0.00 84 1015.4
20260506012355 4 81 3.2 4.8 0.00 0.00 0.00 84 1015.6
20260506011855 4 81 0.0 3.2 0.00 0.00 0.00 84 1015.5
20260506011355 4 81 0.0 0.0 0.00 0.00 0.00 83 1015.6
20260506010355 5 81 0.0 1.6 0.00 0.00 0.00 83 1015.6
20260506005856 5 81 0.0 1.6 0.00 0.00 0.00 83 1015.5
20260506005355 5 81 0.0 3.2 0.00 0.00 0.00 83 1015.5
20260506004354 5 81 1.6 8.0 0.00 0.00 0.00 83 1015.6
20260506003856 5 81 0.0 3.2 0.00 0.00 0.00 82 1015.6
20260506003356 5 81 3.2 4.8 0.00 0.00 0.00 82 1015.6
20260506002856 5 81 0.0 4.8 0.00 0.00 0.00 83 1015.6
20260506001855 6 81 1.6 3.2 0.00 0.00 0.00 83 1015.6
20260506001355 6 81 1.6 3.2 0.00 0.00 0.00 83 1015.6
20260506000855 6 81 3.2 25.7 0.00 0.00 0.00 82 1015.5
20260506000355 6 81 1.6 4.8 0.00 0.00 0.00 82 1015.6
20260505235355 6 81 1.6 4.8 0.00 0.00 0.00 82 1015.6
20260505234355 6 81 1.6 3.2 0.00 0.00 0.00 81 1015.7
20260505233855 6 81 1.6 4.8 0.00 0.00 0.00 81 1015.6
20260505233355 6 81 1.6 4.8 0.00 0.00 0.00 81 1015.5
20260505232855 6 81 3.2 11.3 0.00 0.00 0.00 80 1015.4
20260505232356 6 75 3.2 11.3 0.00 0.00 0.00 80 1015.5
20260505231855 6 12 3.2 12.9 0.00 0.00 0.00 80 1015.5
20260505231355 6 84 8.0 19.3 0.00 0.00 0.00 80 1015.5
20260505230935 6 328 3.2 14.5 0.00 0.00 0.00 80 1015.5
20260505230356 6 52 4.8 16.1 0.00 0.00 0.00 79 1015.5
20260505225856 6 88 3.2 14.5 0.00 0.00 0.00 79 1015.4
20260505225355 6 233 3.2 19.3 0.00 0.00 0.00 79 1015.4
20260505224855 6 111 3.2 11.3 0.00 0.00 0.00 79 1015.5
20260505224355 6 78 1.6 11.3 0.00 0.00 0.00 79 1015.5
20260505223856 6 16 3.2 9.7 0.00 0.00 0.00 79 1015.4
20260505223355 6 88 3.2 8.0 0.00 0.00 0.00 79 1015.5
20260505222855 6 187 1.6 12.9 0.00 0.00 0.00 79 1015.6
20260505221355 6 2 4.8 19.3 0.00 0.00 0.00 80 1015.5
20260505220355 6 56 4.8 19.3 0.00 0.00 0.00 79 1015.4
20260505215855 6 48 3.2 24.1 0.00 0.00 0.00 79 1015.4
20260505215355 6 12 4.8 14.5 0.00 0.00 0.00 80 1015.5
20260505214855 6 53 4.8 12.9 0.00 0.00 0.00 80 1015.4
20260505214355 6 66 3.2 11.3 0.00 0.00 0.00 80 1015.5
20260505213855 6 19 3.2 11.3 0.00 0.00 0.00 80 1015.5
20260505213355 6 20 4.8 16.1 0.00 0.00 0.00 79 1015.4
20260505212856 6 31 3.2 16.1 0.00 0.00 0.00 79 1015.4
20260505212355 6 24 8.0 16.1 0.00 0.00 0.00 79 1015.4
20260505211855 6 344 8.0 11.3 0.00 0.00 0.00 80 1015.3
20260505211355 6 355 4.8 14.5 0.00 0.00 0.00 80 1015.3
20260505210855 6 349 4.8 14.5 0.00 0.00 0.00 80 1015.3
20260505210355 6 17 6.4 19.3 0.00 0.00 0.00 80 1015.3
20260505205855 6 5 9.7 16.1 0.00 0.00 0.00 80 1015.3
20260505205355 6 51 8.0 12.9 0.00 0.00 0.00 80 1015.3
20260505204355 6 27 8.0 14.5 0.00 0.00 0.00 79 1015.2
20260505203855 6 359 4.8 11.3 0.00 0.00 0.00 79 1015.3
20260505202355 6 7 4.8 14.5 0.00 0.00 0.00 79 1015.2
20260505201856 7 26 6.4 14.5 0.00 0.00 0.00 79 1015.2
20260505201356 7 355 4.8 16.1 0.00 0.00 0.00 79 1015.1
20260505200855 7 15 9.7 19.3 0.00 0.00 0.00 79 1015.1
20260505200355 7 13 9.7 20.9 0.00 0.00 0.00 79 1015.1
20260505195356 7 351 6.4 14.5 0.00 0.00 0.00 78 1015.0
20260505194855 7 353 6.4 20.9 0.00 0.00 0.00 78 1015.0
20260505194355 7 12 6.4 12.9 0.00 0.00 0.00 78 1014.9
20260505193355 7 8 4.8 12.9 0.00 0.00 0.00 77 1014.9
20260505192355 7 27 8.0 24.1 0.00 0.00 0.00 78 1014.7
20260505191856 7 6 6.4 19.3 0.00 0.00 0.00 77 1014.7
20260505191355 7 15 8.0 19.3 0.00 0.00 0.00 78 1014.6
20260505190855 7 12 8.0 16.1 0.00 0.00 0.00 78 1014.7
20260505190355 7 359 8.0 19.3 0.00 0.00 0.00 78 1014.7
20260505185855 7 8 6.4 19.3 0.00 0.00 0.00 77 1014.6
20260505185355 7 26 9.7 20.9 0.00 0.00 0.00 77 1014.6
20260505183855 7 34 9.7 19.3 0.00 0.00 0.00 76 1014.5
20260505183355 7 15 9.7 19.3 0.00 0.00 0.00 76 1014.5
20260505182855 7 34 8.0 24.1 0.00 0.00 0.00 75 1014.4
20260505181354 8 20 8.0 20.9 0.00 0.00 0.00 77 1014.4
20260505180856 8 17 8.0 14.5 0.00 0.00 0.00 77 1014.3
20260505180355 8 21 6.4 12.9 0.00 0.00 0.00 77 1014.3
20260505175855 8 353 8.0 19.3 0.00 0.00 0.00 77 1014.3
20260505175355 8 17 8.0 19.3 0.00 0.00 0.00 77 1014.2
20260505174354 8 10 6.4 22.5 0.00 0.00 0.00 77 1014.2
20260505173855 8 358 8.0 19.3 0.00 0.00 0.00 77 1014.3
20260505173355 8 8 9.7 19.3 0.00 0.00 0.00 76 1014.2
20260505172855 8 0 8.0 16.1 0.00 0.00 0.00 76 1014.2
20260505172355 8 5 4.8 16.1 0.00 0.00 0.00 76 1014.3
20260505171855 8 26 4.8 16.1 0.00 0.00 0.00 76 1014.3
20260505171354 9 4 4.8 16.1 0.00 0.00 0.00 75 1014.2
20260505170854 9 7 9.7 19.3 0.00 0.00 0.00 74 1014.3
20260505170355 9 5 11.3 22.5 0.00 0.00 0.00 74 1014.3
20260505165856 9 358 6.4 14.5 0.00 0.00 0.00 74 1014.3
20260505163854 10 38 4.8 16.1 0.00 0.00 0.00 74 1014.2
20260505163355 10 27 4.8 14.5 0.00 0.00 0.00 75 1014.2
20260505162855 10 9 4.8 11.3 0.00 0.00 0.00 74 1014.2
20260505162354 10 1 8.0 19.3 0.00 0.00 0.00 74 1014.2
20260505161354 10 18 8.0 14.5 0.00 0.00 0.00 74 1014.1
20260505160855 10 5 4.8 9.7 0.00 0.00 0.00 74 1014.1
20260505160355 10 29 4.8 12.9 0.00 0.00 0.00 74 1014.1
20260505152855 10 18 3.2 12.9 0.00 0.00 0.00 75 1014.0
20260505152355 10 19 6.4 16.1 0.00 0.00 0.00 74 1014.0
20260505151855 10 23 4.8 9.7 0.00 0.00 0.00 75 1014.0
20260505151357 10 350 4.8 12.9 0.00 0.00 0.00 75 1014.0
20260505150855 10 24 1.6 12.9 0.00 0.00 0.00 76 1013.9
20260505150355 10 26 3.2 8.0 0.00 0.00 0.00 76 1013.9
20260505140355 11 15 6.4 16.1 0.00 0.00 0.00 73 1013.6